Terminal Aerodrome Forecast
Issued by NWS

Home | Current Version | Previous Version | Text Only | Print | Product List | Glossary Off
Versions: 1 2 3 4 5 6 7 8 9 10 11 12 13 14 15 16 17 18 19 20 21 22 23 24 25 26 27 28 29 30 31 32 33

000
FTUS43 KABR 291700
TAFMBG
TAF
KMBG 291737Z 2918/3018 34015G23KT P6SM VCSH BKN050 BKN100
     FM292100 35015G23KT P6SM SCT060
     FM300100 03006KT P6SM SKC
     FM301500 15010KT P6SM SCT060=

USA.gov is the U.S. government's official web portal to all federal, state and local government web resources and services.